Today

Time Wind Dr Wind Spd
mph
Wind Gust
mph
Hum In
%
Humid
%
TempI
F
Temp
F
Raw Bar
in
Tot Rain
in
UV Solar
W/sqm
DailyRain
in
HourRain
in
24HrRain
in
RainRate
in
09/06/26 12:01:35 AM 29 0.0 0.0 36 37 74.8 73.2 29.911 7.41 0.0 0 0.00 0.00 0.00 0.00
09/06/26 12:02:27 AM 32 0.0 0.0 36 37 74.8 73.2 29.909 7.41 0.0 0 0.00 0.00 0.00 0.00
09/06/26 12:03:36 AM 31 0.0 0.0 36 36 74.8 73.1 29.910 7.41 0.0 0 0.00 0.00 0.00 0.00
09/06/26 12:04:25 AM 31 0.0 0.0 36 36 74.8 73.1 29.912 7.41 0.0 0 0.00 0.00 0.00 0.00
09/06/26 12:05:20 AM 25 0.0 0.0 36 36 74.7 73.1 29.912 7.41 0.0 0 0.00 0.00 0.00 0.00
09/06/26 12:06:29 AM 32 0.0 0.0 36 36 74.7 73.1 29.911 7.41 0.0 0 0.00 0.00 0.00 0.00
09/06/26 12:07:21 AM 28 0.0 0.0 36 36 74.8 73.0 29.910 7.41 0.0 0 0.00 0.00 0.00 0.00
09/06/26 12:08:30 AM 31 0.0 0.0 36 37 74.7 73.0 29.912 7.41 0.0 0 0.00 0.00 0.00 0.00
09/06/26 12:09:22 AM 32 0.0 0.0 36 37 74.7 73.0 29.910 7.41 0.0 0 0.00 0.00 0.00 0.00
09/06/26 12:10:35 AM 31 0.0 0.0 36 37 74.7 73.0 29.910 7.41 0.0 0 0.00 0.00 0.00 0.00
09/06/26 12:11:26 AM 26 0.0 0.0 37 37 74.7 73.0 29.911 7.41 0.0 0 0.00 0.00 0.00 0.00
09/06/26 12:12:18 AM 30 0.0 0.0 37 36 74.7 72.9 29.912 7.41 0.0 0 0.00 0.00 0.00 0.00
09/06/26 12:13:31 AM 32 0.0 0.0 37 37 74.7 72.9 29.911 7.41 0.0 0 0.00 0.00 0.00 0.00
09/06/26 12:14:19 AM 28 0.0 0.0 37 37 74.7 72.9 29.911 7.41 0.0 0 0.00 0.00 0.00 0.00
09/06/26 12:15:32 AM 34 0.0 0.0 37 37 74.7 72.9 29.911 7.41 0.0 0 0.00 0.00 0.00 0.00
09/06/26 12:16:23 AM 29 0.0 0.0 37 37 74.7 72.8 29.913 7.41 0.0 0 0.00 0.00 0.00 0.00
09/06/26 12:17:36 AM 32 0.0 0.0 37 37 74.7 72.8 29.911 7.41 0.0 0 0.00 0.00 0.00 0.00
09/06/26 12:18:28 AM 32 0.0 0.0 37 36 74.7 72.7 29.913 7.41 0.0 0 0.00 0.00 0.00 0.00
09/06/26 12:19:34 AM 30 0.0 0.0 37 37 74.7 72.7 29.912 7.41 0.0 0 0.00 0.00 0.00 0.00
09/06/26 12:20:26 AM 31 0.0 0.0 37 37 74.7 72.7 29.911 7.41 0.0 0 0.00 0.00 0.00 0.00
09/06/26 12:21:17 AM 32 0.0 0.0 37 37 74.6 72.7 29.913 7.41 0.0 0 0.00 0.00 0.00 0.00
09/06/26 12:22:30 AM 31 0.0 0.0 37 37 74.7 72.6 29.914 7.41 0.0 0 0.00 0.00 0.00 0.00
09/06/26 12:23:22 AM 30 0.0 0.0 37 36 74.7 72.6 29.914 7.41 0.0 0 0.00 0.00 0.00 0.00
09/06/26 12:24:31 AM 32 0.0 0.0 37 36 74.6 72.6 29.913 7.41 0.0 0 0.00 0.00 0.00 0.00
09/06/26 12:25:26 AM 28 0.0 0.0 37 36 74.7 72.6 29.911 7.41 0.0 0 0.00 0.00 0.00 0.00
09/06/26 12:26:36 AM 30 0.0 0.0 37 37 74.6 72.6 29.913 7.41 0.0 0 0.00 0.00 0.00 0.00
09/06/26 12:27:27 AM 34 0.0 0.0 37 37 74.6 72.6 29.914 7.41 0.0 0 0.00 0.00 0.00 0.00
09/06/26 12:28:19 AM 30 0.0 0.0 37 37 74.6 72.6 29.914 7.41 0.0 0 0.00 0.00 0.00 0.00
09/06/26 12:29:31 AM 32 0.0 0.0 37 37 74.6 72.5 29.913 7.41 0.0 0 0.00 0.00 0.00 0.00
09/06/26 12:30:20 AM 31 0.0 0.0 37 37 74.6 72.5 29.913 7.41 0.0 0 0.00 0.00 0.00 0.00
09/06/26 12:31:30 AM 32 0.0 0.0 37 37 74.6 72.5 29.916 7.41 0.0 0 0.00 0.00 0.00 0.00
09/06/26 12:32:24 AM 31 0.0 0.0 37 37 74.6 72.5 29.915 7.41 0.0 0 0.00 0.00 0.00 0.00
09/06/26 12:33:37 AM 29 0.0 0.0 37 38 74.6 72.5 29.915 7.41 0.0 0 0.00 0.00 0.00 0.00
09/06/26 12:34:28 AM 26 0.0 0.0 37 38 74.6 72.5 29.916 7.41 0.0 0 0.00 0.00 0.00 0.00
09/06/26 12:35:35 AM 30 0.0 0.0 37 38 74.6 72.5 29.914 7.41 0.0 0 0.00 0.00 0.00 0.00
09/06/26 12:36:27 AM 32 0.0 0.0 37 37 74.6 72.5 29.914 7.41 0.0 0 0.00 0.00 0.00 0.00
09/06/26 12:37:21 AM 29 0.0 0.0 37 37 74.6 72.5 29.914 7.41 0.0 0 0.00 0.00 0.00 0.00
09/06/26 12:38:34 AM 26 0.0 0.0 37 38 74.6 72.4 29.917 7.41 0.0 0 0.00 0.00 0.00 0.00
09/06/26 12:39:26 AM 34 0.0 0.0 37 38 74.6 72.5 29.913 7.41 0.0 0 0.00 0.00 0.00 0.00
09/06/26 12:40:17 AM 29 0.0 0.0 37 38 74.6 72.4 29.917 7.41 0.0 0 0.00 0.00 0.00 0.00
09/06/26 12:41:24 AM 26 0.0 0.0 37 38 74.6 72.4 29.917 7.41 0.0 0 0.00 0.00 0.00 0.00
09/06/26 12:42:16 AM 32 0.0 0.0 37 38 74.6 72.4 29.915 7.41 0.0 0 0.00 0.00 0.00 0.00
09/06/26 12:43:28 AM 30 0.0 0.0 37 38 74.6 72.3 29.917 7.41 0.0 0 0.00 0.00 0.00 0.00
09/06/26 12:44:20 AM 31 0.0 0.0 37 38 74.6 72.3 29.916 7.41 0.0 0 0.00 0.00 0.00 0.00
09/06/26 12:45:36 AM 31 0.0 0.0 37 38 74.6 72.2 29.918 7.41 0.0 0 0.00 0.00 0.00 0.00
09/06/26 12:46:21 AM 31 0.0 0.0 37 38 74.6 72.2 29.917 7.41 0.0 0 0.00 0.00 0.00 0.00
09/06/26 12:47:34 AM 28 0.0 0.0 37 38 74.6 72.2 29.917 7.41 0.0 0 0.00 0.00 0.00 0.00
09/06/26 12:48:28 AM 31 0.0 0.0 37 38 74.6 72.1 29.917 7.41 0.0 0 0.00 0.00 0.00 0.00
09/06/26 12:49:17 AM 30 0.0 0.0 37 38 74.6 72.1 29.918 7.41 0.0 0 0.00 0.00 0.00 0.00
09/06/26 12:50:30 AM 30 0.0 0.0 37 38 74.6 72.1 29.920 7.41 0.0 0 0.00 0.00 0.00 0.00
09/06/26 12:51:21 AM 28 0.0 0.0 37 38 74.6 72.1 29.917 7.41 0.0 0 0.00 0.00 0.00 0.00
09/06/26 12:52:34 AM 31 0.0 0.0 37 38 74.5 72.1 29.920 7.41 0.0 0 0.00 0.00 0.00 0.00
09/06/26 12:53:23 AM 26 0.0 0.0 37 38 74.6 72.0 29.920 7.41 0.0 0 0.00 0.00 0.00 0.00
09/06/26 12:54:35 AM 30 0.0 0.0 37 38 74.6 72.0 29.921 7.41 0.0 0 0.00 0.00 0.00 0.00
09/06/26 12:55:27 AM 32 0.0 0.0 37 38 74.5 72.0 29.918 7.41 0.0 0 0.00 0.00 0.00 0.00
09/06/26 12:56:19 AM 29 0.0 0.0 37 38 74.5 72.0 29.916 7.41 0.0 0 0.00 0.00 0.00 0.00
09/06/26 12:57:28 AM 30 0.0 0.0 37 38 74.6 72.0 29.917 7.41 0.0 0 0.00 0.00 0.00 0.00
09/06/26 12:58:20 AM 30 0.0 0.0 37 38 74.5 72.0 29.916 7.41 0.0 0 0.00 0.00 0.00 0.00
09/06/26 12:59:30 AM 32 0.0 0.0 37 38 74.5 72.0 29.914 7.41 0.0 0 0.00 0.00 0.00 0.00
09/06/26 1:00:24 AM 28 0.0 0.0 37 39 74.5 72.0 29.915 7.41 0.0 0 0.00 0.00 0.00 0.00
09/06/26 1:01:34 AM 29 0.0 0.0 37 40 74.5 72.0 29.914 7.41 0.0 0 0.00 0.00 0.00 0.00
09/06/26 1:02:23 AM 29 0.0 0.0 37 40 74.5 72.0 29.912 7.41 0.0 0 0.00 0.00 0.00 0.00
09/06/26 1:03:35 AM 32 0.0 0.0 37 40 74.5 71.9 29.913 7.41 0.0 0 0.00 0.00 0.00 0.00
09/06/26 1:04:27 AM 28 0.0 0.0 37 40 74.5 71.9 29.911 7.41 0.0 0 0.00 0.00 0.00 0.00
09/06/26 1:05:18 AM 34 0.0 0.0 37 40 74.5 71.9 29.911 7.41 0.0 0 0.00 0.00 0.00 0.00
09/06/26 1:06:31 AM 29 0.0 0.0 37 40 74.5 71.9 29.911 7.41 0.0 0 0.00 0.00 0.00 0.00
09/06/26 1:07:20 AM 30 0.0 0.0 37 40 74.5 71.9 29.910 7.41 0.0 0 0.00 0.00 0.00 0.00
09/06/26 1:08:33 AM 26 0.0 0.0 37 40 74.5 71.9 29.908 7.41 0.0 0 0.00 0.00 0.00 0.00
09/06/26 1:09:24 AM 32 0.0 0.0 37 40 74.5 71.9 29.907 7.41 0.0 0 0.00 0.00 0.00 0.00
09/06/26 1:10:37 AM 31 0.0 0.0 37 40 74.5 71.8 29.908 7.41 0.0 0 0.00 0.00 0.00 0.00
09/06/26 1:11:28 AM 32 0.0 0.0 37 39 74.5 71.7 29.911 7.41 0.0 0 0.00 0.00 0.00 0.00
09/06/26 1:12:20 AM 28 0.0 0.0 37 40 74.5 71.8 29.908 7.41 0.0 0 0.00 0.00 0.00 0.00
09/06/26 1:13:30 AM 32 0.0 0.0 37 39 74.5 71.7 29.911 7.41 0.0 0 0.00 0.00 0.00 0.00
09/06/26 1:14:21 AM 28 0.0 0.0 37 39 74.4 71.7 29.908 7.41 0.0 0 0.00 0.00 0.00 0.00
09/06/26 1:15:58 AM 28 0.0 0.0 37 39 74.5 71.7 29.911 7.41 0.0 0 0.00 0.00 0.00 0.00
09/06/26 1:16:29 AM 31 0.0 0.0 37 39 74.4 71.6 29.912 7.41 0.0 0 0.00 0.00 0.00 0.00
09/06/26 1:17:23 AM 28 0.0 0.0 37 39 74.5 71.6 29.914 7.41 0.0 0 0.00 0.00 0.00 0.00
09/06/26 1:18:30 AM 31 0.0 0.0 37 40 74.4 71.6 29.915 7.41 0.0 0 0.00 0.00 0.00 0.00
09/06/26 1:19:25 AM 32 0.0 0.0 37 40 74.4 71.6 29.917 7.41 0.0 0 0.00 0.00 0.00 0.00
09/06/26 1:20:34 AM 32 0.0 0.0 37 41 74.5 71.6 29.914 7.41 0.0 0 0.00 0.00 0.00 0.00
09/06/26 1:21:29 AM 28 0.0 0.0 37 39 74.5 71.6 29.916 7.41 0.0 0 0.00 0.00 0.00 0.00
09/06/26 1:22:21 AM 26 0.0 0.0 37 39 74.4 71.6 29.917 7.41 0.0 0 0.00 0.00 0.00 0.00
09/06/26 1:23:33 AM 28 0.0 0.0 37 38 74.4 71.6 29.916 7.41 0.0 0 0.00 0.00 0.00 0.00
09/06/26 1:24:22 AM 30 0.0 0.0 37 39 74.4 71.5 29.915 7.41 0.0 0 0.00 0.00 0.00 0.00
09/06/26 1:25:32 AM 28 0.0 0.0 37 39 74.4 71.5 29.915 7.41 0.0 0 0.00 0.00 0.00 0.00
09/06/26 1:26:23 AM 30 0.0 0.0 37 39 74.4 71.5 29.914 7.41 0.0 0 0.00 0.00 0.00 0.00
09/06/26 1:27:36 AM 32 0.0 0.0 37 40 74.4 71.5 29.917 7.41 0.0 0 0.00 0.00 0.00 0.00
09/06/26 1:28:27 AM 30 0.0 0.0 37 39 74.4 71.5 29.915 7.41 0.0 0 0.00 0.00 0.00 0.00
09/06/26 1:29:37 AM 34 0.0 0.0 37 39 74.4 71.5 29.915 7.41 0.0 0 0.00 0.00 0.00 0.00
09/06/26 1:30:29 AM 31 0.0 0.0 37 39 74.4 71.5 29.914 7.41 0.0 0 0.00 0.00 0.00 0.00
09/06/26 1:31:20 AM 30 0.0 0.0 37 39 74.4 71.5 29.917 7.41 0.0 0 0.00 0.00 0.00 0.00
09/06/26 1:32:30 AM 32 0.0 0.0 37 38 74.4 71.5 29.915 7.41 0.0 0 0.00 0.00 0.00 0.00
09/06/26 1:33:22 AM 28 0.0 0.0 37 38 74.3 71.5 29.914 7.41 0.0 0 0.00 0.00 0.00 0.00
09/06/26 1:34:31 AM 31 0.0 0.0 37 40 74.4 71.5 29.915 7.41 0.0 0 0.00 0.00 0.00 0.00
09/06/26 1:35:23 AM 32 0.0 0.0 37 40 74.3 71.5 29.915 7.41 0.0 0 0.00 0.00 0.00 0.00
09/06/26 1:36:36 AM 31 0.0 0.0 37 40 74.3 71.5 29.914 7.41 0.0 0 0.00 0.00 0.00 0.00
09/06/26 1:37:28 AM 29 0.0 0.0 37 40 74.4 71.5 29.915 7.41 0.0 0 0.00 0.00 0.00 0.00
09/06/26 1:38:19 AM 26 0.0 0.0 37 39 74.4 71.5 29.914 7.41 0.0 0 0.00 0.00 0.00 0.00
09/06/26 1:39:32 AM 31 0.0 0.0 37 40 74.4 71.5 29.914 7.41 0.0 0 0.00 0.00 0.00 0.00
09/06/26 1:40:21 AM 30 0.0 0.0 37 40 74.3 71.5 29.914 7.41 0.0 0 0.00 0.00 0.00 0.00
09/06/26 1:41:30 AM 32 0.0 0.0 37 39 74.4 71.5 29.916 7.41 0.0 0 0.00 0.00 0.00 0.00
09/06/26 1:42:22 AM 31 0.0 0.0 37 39 74.3 71.5 29.916 7.41 0.0 0 0.00 0.00 0.00 0.00
09/06/26 1:43:35 AM 28 0.0 0.0 37 40 74.3 71.5 29.914 7.41 0.0 0 0.00 0.00 0.00 0.00
09/06/26 1:44:26 AM 32 0.0 0.0 37 41 74.3 71.4 29.914 7.41 0.0 0 0.00 0.00 0.00 0.00
09/06/26 1:45:36 AM 32 0.0 0.0 37 40 74.3 71.4 29.915 7.41 0.0 0 0.00 0.00 0.00 0.00
09/06/26 1:46:28 AM 31 0.0 0.0 37 40 74.3 71.4 29.915 7.41 0.0 0 0.00 0.00 0.00 0.00
09/06/26 1:47:19 AM 28 0.0 0.0 37 40 74.3 71.4 29.915 7.41 0.0 0 0.00 0.00 0.00 0.00
09/06/26 1:48:29 AM 31 0.0 0.0 37 40 74.4 71.3 29.916 7.41 0.0 0 0.00 0.00 0.00 0.00
09/06/26 1:49:21 AM 32 0.0 0.0 37 39 74.3 71.3 29.914 7.41 0.0 0 0.00 0.00 0.00 0.00
09/06/26 1:50:27 AM 32 0.0 0.0 37 39 74.3 71.3 29.914 7.41 0.0 0 0.00 0.00 0.00 0.00
09/06/26 1:51:22 AM 29 0.0 0.0 37 40 74.3 71.3 29.913 7.41 0.0 0 0.00 0.00 0.00 0.00
09/06/26 1:52:32 AM 30 0.0 0.0 37 39 74.3 71.3 29.913 7.41 0.0 0 0.00 0.00 0.00 0.00
09/06/26 1:53:23 AM 30 0.0 0.0 37 39 74.3 71.2 29.912 7.41 0.0 0 0.00 0.00 0.00 0.00
09/06/26 1:54:36 AM 31 0.0 0.0 37 40 74.3 71.2 29.914 7.41 0.0 0 0.00 0.00 0.00 0.00
09/06/26 1:55:28 AM 31 0.0 0.0 37 39 74.3 71.2 29.916 7.41 0.0 0 0.00 0.00 0.00 0.00
09/06/26 1:56:35 AM 31 0.0 0.0 37 38 74.3 71.2 29.915 7.41 0.0 0 0.00 0.00 0.00 0.00
09/06/26 1:57:26 AM 31 0.0 0.0 37 38 74.3 71.2 29.915 7.41 0.0 0 0.00 0.00 0.00 0.00
09/06/26 1:58:18 AM 32 0.0 0.0 37 39 74.3 71.2 29.912 7.41 0.0 0 0.00 0.00 0.00 0.00
09/06/26 1:59:31 AM 31 0.0 0.0 37 39 74.3 71.2 29.912 7.41 0.0 0 0.00 0.00 0.00 0.00
09/06/26 2:00:25 AM 32 0.0 0.0 37 39 74.3 71.2 29.914 7.41 0.0 0 0.00 0.00 0.00 0.00
09/06/26 2:01:32 AM 31 0.0 0.0 37 39 74.3 71.2 29.912 7.41 0.0 0 0.00 0.00 0.00 0.00
09/06/26 2:02:24 AM 32 0.0 0.0 37 39 74.3 71.2 29.913 7.41 0.0 0 0.00 0.00 0.00 0.00
09/06/26 2:03:15 AM 31 0.0 0.0 37 39 74.3 71.2 29.911 7.41 0.0 0 0.00 0.00 0.00 0.00
09/06/26 2:04:28 AM 28 0.0 0.0 37 40 74.3 71.2 29.912 7.41 0.0 0 0.00 0.00 0.00 0.00
09/06/26 2:05:20 AM 28 0.0 0.0 37 40 74.3 71.2 29.911 7.41 0.0 0 0.00 0.00 0.00 0.00
09/06/26 2:06:30 AM 32 0.0 0.0 37 41 74.3 71.2 29.914 7.41 0.0 0 0.00 0.00 0.00 0.00
09/06/26 2:07:21 AM 27 0.0 0.0 37 40 74.3 71.2 29.913 7.41 0.0 0 0.00 0.00 0.00 0.00
09/06/26 2:08:31 AM 30 0.0 0.0 37 41 74.3 71.3 29.910 7.41 0.0 0 0.00 0.00 0.00 0.00
09/06/26 2:09:26 AM 27 0.0 0.0 37 40 74.3 71.2 29.911 7.41 0.0 0 0.00 0.00 0.00 0.00
09/06/26 2:10:35 AM 31 0.0 0.0 37 40 74.3 71.3 29.912 7.41 0.0 0 0.00 0.00 0.00 0.00
09/06/26 2:11:27 AM 32 0.0 0.0 37 40 74.3 71.3 29.911 7.41 0.0 0 0.00 0.00 0.00 0.00
09/06/26 2:12:16 AM 28 0.0 0.0 37 41 74.3 71.3 29.914 7.41 0.0 0 0.00 0.00 0.00 0.00
09/06/26 2:13:28 AM 29 0.0 0.0 37 40 74.2 71.3 29.913 7.41 0.0 0 0.00 0.00 0.00 0.00
09/06/26 2:14:20 AM 32 0.0 0.0 37 40 74.2 71.3 29.916 7.41 0.0 0 0.00 0.00 0.00 0.00
09/06/26 2:15:33 AM 32 0.0 0.0 37 41 74.3 71.3 29.915 7.41 0.0 0 0.00 0.00 0.00 0.00
09/06/26 2:16:25 AM 30 0.0 0.0 37 40 74.3 71.3 29.917 7.41 0.0 0 0.00 0.00 0.00 0.00
09/06/26 2:17:31 AM 31 0.0 0.0 37 41 74.3 71.3 29.916 7.41 0.0 0 0.00 0.00 0.00 0.00
09/06/26 2:18:23 AM 28 0.0 0.0 37 41 74.2 71.3 29.918 7.41 0.0 0 0.00 0.00 0.00 0.00
09/06/26 2:19:18 AM 28 0.0 0.0 37 40 74.3 71.3 29.916 7.41 0.0 0 0.00 0.00 0.00 0.00
09/06/26 2:20:27 AM 32 0.0 0.0 37 40 74.2 71.2 29.917 7.41 0.0 0 0.00 0.00 0.00 0.00
09/06/26 2:21:19 AM 31 0.0 0.0 37 40 74.2 71.2 29.916 7.41 0.0 0 0.00 0.00 0.00 0.00
09/06/26 2:22:26 AM 32 0.0 0.0 37 40 74.2 71.2 29.917 7.41 0.0 0 0.00 0.00 0.00 0.00
09/06/26 2:23:21 AM 31 0.0 0.0 37 40 74.2 71.2 29.918 7.41 0.0 0 0.00 0.00 0.00 0.00
09/06/26 2:24:33 AM 27 0.0 0.0 37 40 74.2 71.2 29.918 7.41 0.0 0 0.00 0.00 0.00 0.00
09/06/26 2:25:22 AM 31 0.0 0.0 37 40 74.2 71.2 29.915 7.41 0.0 0 0.00 0.00 0.00 0.00
09/06/26 2:26:35 AM 35 0.0 0.0 37 40 74.2 71.2 29.918 7.41 0.0 0 0.00 0.00 0.00 0.00
09/06/26 2:27:27 AM 34 0.0 0.0 37 40 74.2 71.2 29.919 7.41 0.0 0 0.00 0.00 0.00 0.00
09/06/26 2:28:36 AM 32 0.0 0.0 37 40 74.2 71.2 29.919 7.41 0.0 0 0.00 0.00 0.00 0.00
09/06/26 2:29:28 AM 34 0.0 0.0 37 39 74.2 71.1 29.917 7.41 0.0 0 0.00 0.00 0.00 0.00
09/06/26 2:30:41 AM 28 0.0 0.0 37 39 74.2 71.1 29.918 7.41 0.0 0 0.00 0.00 0.00 0.00
09/06/26 2:31:32 AM 31 0.0 0.0 37 39 74.2 71.1 29.917 7.41 0.0 0 0.00 0.00 0.00 0.00
09/06/26 2:32:21 AM 32 0.0 0.0 37 39 74.2 71.1 29.915 7.41 0.0 0 0.00 0.00 0.00 0.00
09/06/26 2:33:31 AM 32 0.0 0.0 37 39 74.2 71.1 29.914 7.41 0.0 0 0.00 0.00 0.00 0.00
09/06/26 2:34:23 AM 32 0.0 0.0 37 39 74.2 71.0 29.911 7.41 0.0 0 0.00 0.00 0.00 0.00
09/06/26 2:35:35 AM 26 0.0 0.0 37 39 74.2 71.0 29.911 7.41 0.0 0 0.00 0.00 0.00 0.00
09/06/26 2:36:27 AM 28 0.0 0.0 37 39 74.2 71.0 29.913 7.41 0.0 0 0.00 0.00 0.00 0.00
09/06/26 2:37:19 AM 31 0.0 0.0 37 39 74.2 71.0 29.911 7.41 0.0 0 0.00 0.00 0.00 0.00
09/06/26 2:38:29 AM 31 0.0 0.0 37 39 74.2 71.0 29.911 7.41 0.0 0 0.00 0.00 0.00 0.00
09/06/26 2:39:17 AM 32 0.0 0.0 37 39 74.2 71.0 29.910 7.41 0.0 0 0.00 0.00 0.00 0.00
09/06/26 2:40:30 AM 25 0.0 0.0 37 39 74.2 71.0 29.909 7.41 0.0 0 0.00 0.00 0.00 0.00
09/06/26 2:41:22 AM 30 0.0 0.0 37 39 74.2 71.0 29.908 7.41 0.0 0 0.00 0.00 0.00 0.00
09/06/26 2:42:34 AM 31 0.0 0.0 37 39 74.2 71.0 29.910 7.41 0.0 0 0.00 0.00 0.00 0.00
09/06/26 2:43:26 AM 32 0.0 0.0 37 39 74.2 71.0 29.910 7.41 0.0 0 0.00 0.00 0.00 0.00
09/06/26 2:44:33 AM 31 0.0 0.0 37 39 74.1 71.0 29.907 7.41 0.0 0 0.00 0.00 0.00 0.00
09/06/26 2:45:28 AM 23 0.0 0.0 37 39 74.2 71.0 29.906 7.41 0.0 0 0.00 0.00 0.00 0.00
09/06/26 2:46:16 AM 30 0.0 0.0 37 38 74.1 71.0 29.907 7.41 0.0 0 0.00 0.00 0.00 0.00
09/06/26 2:47:29 AM 29 0.0 0.0 37 38 74.1 71.1 29.907 7.41 0.0 0 0.00 0.00 0.00 0.00
09/06/26 2:48:24 AM 30 0.0 0.0 37 38 74.1 71.1 29.907 7.41 0.0 0 0.00 0.00 0.00 0.00
09/06/26 2:49:30 AM 32 0.0 0.0 37 39 74.2 71.1 29.905 7.41 0.0 0 0.00 0.00 0.00 0.00
09/06/26 2:50:22 AM 30 0.0 0.0 37 38 74.1 71.2 29.904 7.41 0.0 0 0.00 0.00 0.00 0.00
09/06/26 2:51:35 AM 30 0.0 0.0 37 38 74.2 71.2 29.904 7.41 0.0 0 0.00 0.00 0.00 0.00
09/06/26 2:52:27 AM 27 0.0 0.0 37 38 74.1 71.3 29.905 7.41 0.0 0 0.00 0.00 0.00 0.00
09/06/26 2:53:18 AM 34 0.0 0.0 37 39 74.2 71.3 29.900 7.41 0.0 0 0.00 0.00 0.00 0.00
09/06/26 2:54:31 AM 31 0.0 0.0 37 39 74.1 71.4 29.901 7.41 0.0 0 0.00 0.00 0.00 0.00
09/06/26 2:55:20 AM 32 0.0 0.0 37 41 74.2 71.5 29.904 7.41 0.0 0 0.00 0.00 0.00 0.00
09/06/26 2:56:33 AM 31 0.0 0.0 37 40 74.1 71.5 29.900 7.41 0.0 0 0.00 0.00 0.00 0.00
09/06/26 2:57:24 AM 32 0.0 0.0 37 40 74.1 71.5 29.898 7.41 0.0 0 0.00 0.00 0.00 0.00
09/06/26 2:58:37 AM 32 0.0 0.0 37 40 74.1 71.6 29.901 7.41 0.0 0 0.00 0.00 0.00 0.00
09/06/26 2:59:26 AM 28 0.0 0.0 37 40 74.1 71.6 29.902 7.41 0.0 0 0.00 0.00 0.00 0.00
09/06/26 3:00:36 AM 31 0.0 0.0 37 39 74.1 71.6 29.902 7.41 0.0 0 0.00 0.00 0.00 0.00
09/06/26 3:01:27 AM 32 0.0 0.0 37 39 74.1 71.6 29.906 7.41 0.0 0 0.00 0.00 0.00 0.00
09/06/26 3:02:19 AM 31 0.0 0.0 37 39 74.1 71.7 29.906 7.41 0.0 0 0.00 0.00 0.00 0.00
09/06/26 3:03:29 AM 29 0.0 0.0 37 40 74.1 71.7 29.906 7.41 0.0 0 0.00 0.00 0.00 0.00
09/06/26 3:04:24 AM 26 0.0 0.0 37 40 74.1 71.6 29.905 7.41 0.0 0 0.00 0.00 0.00 0.00
09/06/26 3:05:30 AM 28 0.0 0.0 37 40 74.1 71.7 29.905 7.41 0.0 0 0.00 0.00 0.00 0.00
09/06/26 3:06:22 AM 31 0.0 0.0 37 41 74.1 71.7 29.902 7.41 0.0 0 0.00 0.00 0.00 0.00
09/06/26 3:07:35 AM 32 0.0 0.0 37 41 74.1 71.7 29.903 7.41 0.0 0 0.00 0.00 0.00 0.00
09/06/26 3:08:26 AM 29 0.0 0.0 37 41 74.1 71.7 29.904 7.41 0.0 0 0.00 0.00 0.00 0.00
09/06/26 3:09:18 AM 32 0.0 0.0 37 41 74.1 71.7 29.903 7.41 0.0 0 0.00 0.00 0.00 0.00
09/06/26 3:10:31 AM 32 0.0 0.0 37 41 74.1 71.7 29.902 7.41 0.0 0 0.00 0.00 0.00 0.00
09/06/26 3:11:20 AM 32 0.0 0.0 37 40 74.1 71.7 29.902 7.41 0.0 0 0.00 0.00 0.00 0.00
09/06/26 3:12:32 AM 31 0.0 0.0 37 40 74.1 71.6 29.901 7.41 0.0 0 0.00 0.00 0.00 0.00
09/06/26 3:13:24 AM 32 0.0 0.0 37 39 74.1 71.7 29.900 7.41 0.0 0 0.00 0.00 0.00 0.00
09/06/26 3:14:16 AM 28 0.0 0.0 37 39 74.1 71.6 29.901 7.41 0.0 0 0.00 0.00 0.00 0.00
09/06/26 3:15:29 AM 30 0.0 0.0 37 39 74.1 71.6 29.899 7.41 0.0 0 0.00 0.00 0.00 0.00
09/06/26 3:16:35 AM 32 0.0 0.0 37 39 74.1 71.6 29.899 7.41 0.0 0 0.00 0.00 0.00 0.00
09/06/26 3:17:27 AM 32 0.0 0.0 37 39 74.1 71.5 29.900 7.41 0.0 0 0.00 0.00 0.00 0.00
09/06/26 3:18:19 AM 30 0.0 0.0 37 39 74.1 71.5 29.899 7.41 0.0 0 0.00 0.00 0.00 0.00
09/06/26 3:19:32 AM 34 0.0 0.0 37 39 74.1 71.5 29.900 7.41 0.0 0 0.00 0.00 0.00 0.00
09/06/26 3:20:24 AM 28 0.0 0.0 37 39 74.1 71.5 29.900 7.41 0.0 0 0.00 0.00 0.00 0.00
09/06/26 3:21:15 AM 32 0.0 0.0 37 40 74.1 71.5 29.899 7.41 0.0 0 0.00 0.00 0.00 0.00
09/06/26 3:22:25 AM 26 0.0 0.0 37 40 74.1 71.5 29.901 7.41 0.0 0 0.00 0.00 0.00 0.00
09/06/26 3:23:17 AM 32 0.0 0.0 37 40 74.1 71.5 29.899 7.41 0.0 0 0.00 0.00 0.00 0.00
09/06/26 3:24:27 AM 31 0.0 0.0 37 40 74.0 71.4 29.900 7.41 0.0 0 0.00 0.00 0.00 0.00
09/06/26 3:25:18 AM 28 0.0 0.0 37 40 74.0 71.4 29.896 7.41 0.0 0 0.00 0.00 0.00 0.00
09/06/26 3:26:31 AM 31 0.0 0.0 37 40 74.1 71.4 29.898 7.41 0.0 0 0.00 0.00 0.00 0.00
09/06/26 3:27:20 AM 29 0.0 0.0 37 40 74.1 71.4 29.899 7.41 0.0 0 0.00 0.00 0.00 0.00
09/06/26 3:28:33 AM 32 0.0 0.0 37 41 74.1 71.4 29.901 7.41 0.0 0 0.00 0.00 0.00 0.00
09/06/26 3:29:24 AM 32 0.0 0.0 37 41 74.1 71.4 29.901 7.41 0.0 0 0.00 0.00 0.00 0.00
09/06/26 3:30:37 AM 30 0.0 0.0 37 41 74.1 71.4 29.903 7.41 0.0 0 0.00 0.00 0.00 0.00
09/06/26 3:31:29 AM 28 0.0 0.0 37 41 74.0 71.4 29.901 7.41 0.0 0 0.00 0.00 0.00 0.00

University Police wind advisory reference

For campus closure information please call the campus Emergency Hotline at (909) 537-5999

© All rights reserved. Unauthorized duplication or distribution is prohibited

Never base important decisions on this or any weather information obtained from the Internet

California State University, San Bernardino
5500 University Parkway, San Bernardino, CA. 92407
Phone: (909) 537-5108, Email: Weather Webmaster
Last Updated: